EW2956 Weather Reports


time (UTC)temp
F
wind
direction
speed
knots
gust
knots
rain 1hr
in
rain 24hr
in
rain mn
in
humidity
%
barometer
mb
20260507031003 56 341 0.9 4.3 0.00 0.31 0.31 85 1009.7
20260507025003 57 355 0.9 7.0 0.00 0.31 0.31 86 1009.6
20260507024003 57 359 4.3 13.0 0.01 0.31 0.31 86 1009.1
20260507023003 58 358 0.9 7.8 0.01 0.31 0.31 88 1009.2
20260507022003 58 296 0.9 4.3 0.01 0.31 0.31 87 1009.1
20260507021003 58 324 1.7 7.8 0.01 0.31 0.31 87 1009.2
20260507020002 58 299 0.0 1.7 0.01 0.31 0.31 89 1009.3
20260507015003 59 275 0.9 4.3 0.01 0.31 0.31 88 1009.4
20260507014003 59 279 0.9 4.3 0.00 0.30 0.30 87 1009.3
20260507013002 60 298 0.9 3.5 0.00 0.30 0.30 88 1009.5
20260507012003 60 294 0.9 4.3 0.00 0.30 0.30 87 1009.1
20260507011003 60 273 0.9 3.5 0.00 0.30 0.30 87 1009.1
20260507010003 61 277 0.9 7.0 0.00 0.30 0.30 87 1008.7
20260507005003 61 294 0.9 4.3 0.00 0.30 0.30 89 1008.9
20260507004003 62 288 0.9 5.2 0.01 0.30 0.30 90 1008.8
20260507003003 62 317 0.0 8.7 0.02 0.30 0.30 92 1008.5
20260507002003 63 312 0.0 1.7 0.03 0.30 0.30 92 1008.1
20260507001003 63 328 0.0 0.9 0.04 0.30 0.30 91 1007.5
20260507000003 63 207 0.0 1.7 0.04 0.30 0.30 90 1007.2
20260506235003 63 227 0.9 3.5 0.04 0.30 0.30 90 1007.2
20260506234003 64 211 0.0 1.7 0.03 0.29 0.29 90 1007.4
20260506233003 64 181 0.0 1.7 0.02 0.28 0.28 89 1007.3
20260506232003 65 203 0.9 5.2 0.01 0.27 0.27 88 1007.4
20260506231003 65 227 0.9 5.2 0.00 0.26 0.26 87 1007.3
20260506230003 66 209 0.9 1.7 0.00 0.26 0.26 86 1007.1
20260506225003 66 193 0.9 4.3 0.00 0.26 0.26 85 1006.9
20260506223003 67 223 0.9 3.5 0.00 0.26 0.26 83 1007.0
20260506222003 67 216 0.9 3.5 0.00 0.26 0.26 82 1006.9
20260506220003 67 203 1.7 7.0 0.00 0.26 0.26 82 1006.7
20260506215003 67 207 1.7 8.7 0.00 0.26 0.26 81 1006.8
20260506213003 68 220 1.7 7.0 0.00 0.26 0.26 80 1006.6
20260506211003 69 224 3.5 9.6 0.00 0.26 0.26 77 1006.4
20260506210003 70 268 3.5 15.6 0.00 0.26 0.26 77 1006.2
20260506205003 70 211 3.5 7.8 0.00 0.26 0.26 80 1006.2
20260506204003 68 233 1.7 8.7 0.00 0.26 0.26 80 1006.3
20260506203003 68 249 1.7 7.8 0.00 0.26 0.26 81 1006.2
20260506202002 67 247 0.9 4.3 0.00 0.26 0.26 82 1006.2
20260506201003 67 235 1.7 7.0 0.00 0.26 0.26 82 1006.3
20260506195003 66 193 0.9 7.8 0.00 0.26 0.26 85 1006.4
20260506194003 65 220 0.9 5.2 0.00 0.26 0.26 86 1006.5
20260506192003 65 194 1.7 7.0 0.00 0.26 0.26 85 1006.5
20260506191003 65 188 1.7 7.8 0.00 0.26 0.26 86 1006.6
20260506190004 65 218 1.7 5.2 0.00 0.26 0.26 89 1006.6
20260506184003 63 212 1.7 7.0 0.00 0.26 0.26 90 1006.9
20260506182003 62 181 1.7 10.4 0.00 0.26 0.26 90 1007.2
20260506181003 62 208 1.7 7.8 0.00 0.26 0.26 90 1007.1
20260506180003 62 188 3.5 7.0 0.00 0.26 0.26 91 1007.3
20260506173003 61 191 3.5 10.4 0.00 0.26 0.26 91 1007.2
20260506172003 61 195 4.3 8.7 0.00 0.26 0.26 91 1007.1
20260506170003 61 195 3.5 10.4 0.00 0.26 0.26 91 1007.1
20260506165003 61 199 4.3 9.6 0.01 0.26 0.26 92 1007.1
20260506163003 61 188 3.5 12.2 0.03 0.26 0.26 92 1007.5
20260506162003 61 198 4.3 12.2 0.05 0.26 0.26 92 1007.6
20260506161003 61 189 3.5 13.0 0.06 0.26 0.26 92 1007.5
20260506155003 61 144 3.5 13.0 0.09 0.25 0.25 93 1006.9
20260506154003 61 175 1.7 8.7 0.09 0.23 0.23 93 1007.4
20260506153003 61 181 3.5 8.7 0.10 0.23 0.23 93 1007.9
20260506151003 61 207 3.5 7.8 0.09 0.19 0.19 92 1008.4
20260506150003 61 200 3.5 10.4 0.11 0.18 0.18 91 1008.4
20260506145003 61 187 1.7 7.8 0.11 0.16 0.16 91 1008.4
20260506143003 62 177 1.7 7.0 0.09 0.13 0.13 91 1008.3
20260506142003 61 183 3.5 12.2 0.10 0.13 0.13 91 1008.2
20260506141003 61 159 0.9 7.8 0.07 0.10 0.10 90 1008.1
20260506140003 61 154 0.9 5.2 0.05 0.07 0.07 90 1008.1
20260506135003 62 139 0.9 7.0 0.03 0.05 0.05 89 1008.1
20260506134003 62 154 0.9 5.2 0.03 0.04 0.04 88 1008.3
20260506133003 62 192 0.9 5.2 0.03 0.04 0.04 88 1008.1
20260506132003 62 199 0.0 3.5 0.02 0.03 0.03 87 1008.3
20260506131002 62 172 0.9 3.5 0.03 0.03 0.03 87 1008.3
20260506130003 62 176 0.9 3.5 0.02 0.02 0.02 86 1008.4
20260506125003 62 171 0.9 4.3 0.02 0.02 0.02 86 1008.4
20260506124003 62 170 0.9 5.2 0.01 0.01 0.01 85 1008.5
20260506122003 63 176 0.9 4.3 0.01 0.01 0.01 84 1008.7
20260506121004 63 179 1.7 7.0 0.00 0.00 0.00 83 1008.6
20260506120003 63 179 1.7 7.0 0.00 0.00 0.00 83 1008.3
20260506115003 63 183 1.7 7.0 0.00 0.00 0.00 81 1008.1
20260506114005 63 206 1.7 5.2 0.00 0.00 0.00 81 1008.2
20260506113003 64 195 1.7 7.8 0.00 0.00 0.00 80 1008.0
20260506112004 64 188 1.7 7.8 0.00 0.00 0.00 78 1007.9
20260506111003 64 183 3.5 7.8 0.00 0.00 0.00 77 1007.8
20260506110003 64 167 1.7 9.6 0.00 0.00 0.00 77 1007.6
20260506105003 64 184 1.7 7.8 0.00 0.00 0.00 77 1007.7
20260506104003 65 175 3.5 13.0 0.00 0.00 0.00 76 1007.7
20260506103003 65 193 1.7 9.6 0.00 0.00 0.00 77 1007.4
20260506102003 64 198 0.9 7.8 0.00 0.00 0.00 76 1007.4
20260506101003 65 184 1.7 7.8 0.00 0.00 0.00 76 1007.3
20260506100003 65 168 3.5 9.6 0.00 0.00 0.00 75 1007.2
20260506095003 65 186 1.7 7.8 0.00 0.00 0.00 75 1007.2
20260506094003 65 169 3.5 9.6 0.00 0.00 0.00 75 1007.2
20260506093004 65 175 3.5 10.4 0.00 0.00 0.00 74 1007.3
20260506092003 65 194 1.7 8.7 0.00 0.00 0.00 74 1007.4
20260506091003 65 181 1.7 9.6 0.00 0.00 0.00 74 1007.4
20260506085003 65 190 1.7 7.0 0.00 0.00 0.00 73 1007.4
20260506084003 65 186 1.7 7.8 0.00 0.00 0.00 72 1007.6
20260506083004 65 183 1.7 9.6 0.00 0.00 0.00 72 1007.6
20260506082003 65 191 1.7 9.6 0.00 0.00 0.00 72 1007.6
20260506081003 65 167 1.7 8.7 0.00 0.00 0.00 71 1007.6
20260506073003 65 178 0.9 3.5 0.00 0.00 0.00 68 1007.8
20260506072003 66 173 0.9 5.2 0.00 0.00 0.00 68 1007.8
20260506071003 66 163 0.9 4.3 0.00 0.00 0.00 67 1007.9
20260506062003 66 176 1.7 7.8 0.00 0.00 0.00 65 1008.3
20260506051003 66 182 0.9 5.2 0.00 0.00 0.00 63 1008.7
20260506044003 66 179 1.7 5.2 0.00 0.00 0.00 61 1008.8
20260506043003 66 169 0.9 4.3 0.00 0.00 0.00 61 1008.8
20260506041003 67 155 0.9 7.0 0.00 0.00 0.00 59 1008.8
20260506040004 67 152 0.9 5.2 0.00 0.00 0.00 59 1008.8
20260506035003 67 158 1.7 5.2 0.00 0.00 0.00 58 1008.8
20260506034004 67 156 0.9 7.8 0.00 0.00 0.00 58 1008.7
20260506032003 68 197 1.7 7.8 0.00 0.00 0.00 58 1008.7